TimeCST,TemperatureF,Dew PointF,Humidity,Sea Level PressureIn,VisibilityMPH,Wind Direction,Wind SpeedMPH,Gust SpeedMPH,PrecipitationIn,Events,Conditions,WindDirDegrees,DateUTC
12:53 AM,52.0,44.1,74,29.99,10.0,SSE,6.9,-,N/A,,Clear,160,2014-03-08 06:53:00
1:53 AM,51.1,45.0,80,29.98,10.0,SE,6.9,-,N/A,,Clear,140,2014-03-08 07:53:00
2:53 AM,51.1,46.0,83,29.96,10.0,SE,8.1,-,N/A,,Clear,130,2014-03-08 08:53:00
3:53 AM,52.0,48.0,86,29.94,10.0,SSE,8.1,-,N/A,,Clear,150,2014-03-08 09:53:00
4:53 AM,54.0,48.9,83,29.97,10.0,SSE,10.4,-,N/A,,Clear,160,2014-03-08 10:53:00
5:53 AM,52.0,48.0,86,30.01,10.0,ESE,5.8,-,N/A,,Mostly Cloudy,120,2014-03-08 11:53:00
6:53 AM,54.0,48.9,83,30.05,10.0,ENE,4.6,-,N/A,,Overcast,70,2014-03-08 12:53:00
7:43 AM,53.1,48.9,86,30.09,4.0,ENE,4.6,-,N/A,,Overcast,70,2014-03-08 13:43:00
7:53 AM,53.1,48.9,86,30.09,3.0,East,5.8,-,N/A,,Overcast,90,2014-03-08 13:53:00
8:09 AM,53.1,50.0,89,30.08,3.0,East,6.9,-,N/A,,Overcast,80,2014-03-08 14:09:00
8:26 AM,54.0,50.0,86,30.09,6.0,East,6.9,-,N/A,,Overcast,90,2014-03-08 14:26:00
8:53 AM,55.0,51.1,86,30.09,9.0,ESE,8.1,-,N/A,,Overcast,110,2014-03-08 14:53:00
9:53 AM,57.9,51.1,78,30.11,10.0,SE,6.9,-,N/A,,Overcast,130,2014-03-08 15:53:00
10:05 AM,57.9,50.0,75,30.12,10.0,ESE,6.9,-,N/A,,Overcast,120,2014-03-08 16:05:00
10:53 AM,59.0,51.1,75,30.11,10.0,SE,8.1,-,N/A,,Overcast,130,2014-03-08 16:53:00
11:53 AM,61.0,52.0,72,30.10,10.0,SE,8.1,-,N/A,,Overcast,130,2014-03-08 17:53:00
12:53 PM,63.0,52.0,67,30.09,10.0,SSE,6.9,-,N/A,,Overcast,150,2014-03-08 18:53:00
1:53 PM,64.0,53.1,67,30.06,10.0,SE,6.9,-,N/A,,Overcast,130,2014-03-08 19:53:00
2:53 PM,64.0,54.0,70,30.05,10.0,SE,5.8,-,N/A,,Overcast,140,2014-03-08 20:53:00
3:53 PM,64.0,54.0,70,30.05,8.0,East,5.8,-,N/A,,Overcast,90,2014-03-08 21:53:00
4:53 PM,62.1,54.0,75,30.06,10.0,East,6.9,-,0.00,,Overcast,100,2014-03-08 22:53:00
5:53 PM,62.1,54.0,75,30.09,10.0,Calm,Calm,-,N/A,,Overcast,0,2014-03-08 23:53:00
6:14 PM,61.0,54.0,78,30.11,10.0,NW,3.5,-,N/A,,Overcast,320,2014-03-09 00:14:00
6:53 PM,60.1,55.0,83,30.11,6.0,North,4.6,-,0.00,Rain,Light Rain,360,2014-03-09 00:53:00
7:53 PM,59.0,55.0,87,30.14,4.0,NE,4.6,-,0.00,,Overcast,40,2014-03-09 01:53:00
8:23 PM,57.9,55.0,90,30.16,2.0,Calm,Calm,-,0.01,Rain,Light Rain,0,2014-03-09 02:23:00
8:53 PM,57.9,55.0,90,30.17,2.0,NNE,3.5,-,0.04,Rain,Light Rain,20,2014-03-09 02:53:00
9:14 PM,57.9,55.0,90,30.18,2.0,NNW,3.5,-,0.01,Rain,Light Rain,340,2014-03-09 03:14:00
9:17 PM,57.9,55.0,90,30.19,1.8,NNW,3.5,-,0.01,Rain,Light Rain,330,2014-03-09 03:17:00
9:53 PM,57.9,55.0,90,30.19,2.0,NNW,5.8,-,0.04,Rain,Light Rain,330,2014-03-09 03:53:00
10:07 PM,57.9,55.0,90,30.21,1.8,NW,5.8,-,0.02,Rain,Light Rain,320,2014-03-09 04:07:00
10:18 PM,55.9,53.1,90,30.21,3.0,NW,10.4,19.6,0.03,Rain,Light Rain,310,2014-03-09 04:18:00
10:49 PM,55.4,51.8,88,30.21,2.5,North,6.9,-,0.12,Rain,Heavy Rain,350,2014-03-09 04:49:00
10:53 PM,55.0,52.0,89,30.21,2.5,North,5.8,-,0.15,Rain,Heavy Rain,350,2014-03-09 04:53:00
11:08 PM,55.0,52.0,89,30.20,3.0,NNE,4.6,-,0.05,Rain,Rain,20,2014-03-09 05:08:00
11:24 PM,55.0,52.0,89,30.21,4.0,NNW,4.6,-,0.07,Rain,Light Rain,340,2014-03-09 05:24:00
11:53 PM,54.0,51.1,90,30.20,5.0,NNW,5.8,-,0.09,Rain,Light Rain,340,2014-03-09 05:53:00